Raduga

operational
NORAD ID: 10987 Int'l Des: 1978-073 Owner: GUKOSR Country: SU
HEOCIRCULARGSO

关于 Raduga

正在加载描述...

实时位置

正在加载3D地球...

即将过境

高度历史

Altitude vs Time

uPlot chart will show altitude changes over time

两行轨道根数

1 10987U 78073A 26062.58447346 -.00000365 00000-0 00000-0 0 9992
2 10987 5.0555 279.8522 0011836 33.1414 168.1045 1.00250049118542
Epoch: Mar 3, 2026 • Age: 23 hours

当前状态

高度 35766.9 km
速度 3.08 km/s
星下点 -2.18°S, 109.31°E
发射日期 Jul 18, 1978
运行时间 47.6 years
类型 other

技术详情

分类 Payload
质量 1965.00 kg
干质量 1800.00 kg
总质量 1965.00 kg
长度 5.50 m
直径 2.50 m
跨度 9.50 m
形状 Step Cyl + 2 Pan
制造商 NPOPM
平台类型 Raduga
阶段状态 In Orbit
所有者/国家 GUKOSR/SU

大型星座

Loading constellations...